,,,PA_Meas_PMT16A,,PR_Meas_QMR101_102,,RH_Meas_QMH101,,SR_Meas_QMS101,,TA_Meas_QMH101,,GenWind,,GenWind,
date,time,status,PA,status,PR,status,RH,status,SR,status,TA,status,DirAvg,status,SpdAvg,
2011-04-27, 00:00:04,VALID,1008.19,VALID,0,VALID,103.626,VALID,0,VALID,23.9863,VALID,352,VALID,0.313281,
2011-04-27, 00:01:04,VALID,1008.14,VALID,0,VALID,103.649,VALID,0,VALID,23.9668,VALID,352,VALID,0.259375,
2011-04-27, 00:02:04,VALID,1008.12,VALID,0,VALID,103.649,VALID,0,VALID,23.9473,VALID,352,VALID,0.147266,
2011-04-27, 00:03:04,VALID,1008.1,VALID,0,VALID,103.649,VALID,0,VALID,23.9473,VALID,352,VALID,0,
2011-04-27, 00:04:04,VALID,1008.06,VALID,0,VALID,103.664,VALID,0,VALID,23.9473,VALID,352,VALID,0,
2011-04-27, 00:05:04,VALID,1008.07,VALID,0,VALID,103.649,VALID,0,VALID,23.9278,VALID,352,VALID,0,
2011-04-27, 00:06:04,VALID,1008.03,VALID,0,VALID,103.649,VALID,0,VALID,23.9278,VALID,352,VALID,0,
2011-04-27, 00:07:04,VALID,1008,VALID,0,VALID,103.642,VALID,0,VALID,23.9278,VALID,352,VALID,0,
2011-04-27, 00:08:04,VALID,1007.99,VALID,0,VALID,103.619,VALID,0,VALID,23.9473,VALID,352,VALID,0,
2011-04-27, 00:09:04,VALID,1007.96,VALID,0,VALID,103.626,VALID,0,VALID,23.9473,VALID,352,VALID,0,
2011-04-27, 00:10:04,VALID,1007.96,VALID,0,VALID,103.626,VALID,0,VALID,23.926,VALID,352,VALID,0,
2011-04-27, 00:11:04,VALID,1007.95,VALID,0,VALID,103.619,VALID,0.105969,VALID,23.9473,VALID,352,VALID,0,
2011-04-27, 00:12:04,VALID,1007.92,VALID,0,VALID,103.596,VALID,0,VALID,23.926,VALID,352,VALID,0,
2011-04-27, 00:13:04,VALID,1007.89,VALID,0,VALID,103.588,VALID,0,VALID,23.926,VALID,352,VALID,0,
2011-04-27, 00:14:04,VALID,1007.86,VALID,0,VALID,103.588,VALID,0,VALID,23.9473,VALID,352,VALID,0,
2011-04-27, 00:15:04,VALID,1007.84,VALID,0,VALID,103.581,VALID,0,VALID,23.9473,VALID,352,VALID,0,
2011-04-27, 00:16:04,VALID,1007.85,VALID,0,VALID,103.581,VALID,0,VALID,23.9473,VALID,352,VALID,0,
2011-04-27, 00:17:04,VALID,1007.85,VALID,0,VALID,103.596,VALID,0.105969,VALID,23.926,VALID,352,VALID,0,
2011-04-27, 00:18:04,VALID,1007.89,VALID,0,VALID,103.588,VALID,0,VALID,23.926,VALID,352,VALID,0,
2011-04-27, 00:19:04,VALID,1007.84,VALID,0,VALID,103.603,VALID,0,VALID,23.9065,VALID,352,VALID,0,
2011-04-27, 00:20:04,VALID,1007.86,VALID,0,VALID,103.619,VALID,0,VALID,23.9278,VALID,352,VALID,0,
2011-04-27, 00:21:04,VALID,1007.88,VALID,0,VALID,103.619,VALID,0,VALID,23.9084,VALID,352,VALID,0,
2011-04-27, 00:22:04,VALID,1007.89,VALID,0,VALID,103.611,VALID,0,VALID,23.8889,VALID,352,VALID,0,
2011-04-27, 00:23:04,VALID,1007.87,VALID,0,VALID,103.603,VALID,0,VALID,23.8889,VALID,352,VALID,0,
2011-04-27, 00:24:04,VALID,1007.88,VALID,0,VALID,103.603,VALID,0,VALID,23.8889,VALID,352,VALID,0,
2011-04-27, 00:25:04,VALID,1007.89,VALID,0,VALID,103.581,VALID,0,VALID,23.8889,VALID,352,VALID,0,
2011-04-27, 00:26:04,VALID,1007.86,VALID,0,VALID,103.596,VALID,0,VALID,23.8889,VALID,352,VALID,0.321484,
2011-04-27, 00:27:04,VALID,1007.84,VALID,0,VALID,103.603,VALID,0,VALID,23.8481,VALID,352,VALID,0.3375,
2011-04-27, 00:28:04,VALID,1007.86,VALID,0,VALID,103.634,VALID,0,VALID,23.8499,VALID,352,VALID,0.250391,
2011-04-27, 00:29:04,VALID,1007.87,VALID,0,VALID,103.634,VALID,0,VALID,23.8304,VALID,352,VALID,0.264844,
2011-04-27, 00:30:04,VALID,1007.86,VALID,0,VALID,103.657,VALID,0,VALID,23.8109,VALID,352,VALID,0.363672,
2011-04-27, 00:31:04,VALID,1007.85,VALID,0,VALID,103.642,VALID,0,VALID,23.7914,VALID,352,VALID,0.234375,
2011-04-27, 00:32:04,VALID,1007.87,VALID,0,VALID,103.626,VALID,0,VALID,23.7701,VALID,352,VALID,0.284375,
2011-04-27, 00:33:04,VALID,1007.9,VALID,0,VALID,103.596,VALID,0.105969,VALID,23.7507,VALID,352,VALID,0.1875,
2011-04-27, 00:34:04,VALID,1007.9,VALID,0,VALID,103.611,VALID,0.105969,VALID,23.7914,VALID,352,VALID,0,
2011-04-27, 00:35:04,VALID,1007.91,VALID,0,VALID,103.596,VALID,0,VALID,23.7701,VALID,352,VALID,0,
2011-04-27, 00:36:04,VALID,1007.89,VALID,0,VALID,103.581,VALID,0,VALID,23.772,VALID,352,VALID,0,
2011-04-27, 00:37:04,VALID,1007.85,VALID,0,VALID,103.596,VALID,0,VALID,23.7507,VALID,352,VALID,0,
2011-04-27, 00:38:04,VALID,1007.87,VALID,0,VALID,103.603,VALID,0,VALID,23.7312,VALID,352,VALID,0,
2011-04-27, 00:39:04,VALID,1007.86,VALID,0,VALID,103.581,VALID,0,VALID,23.7525,VALID,352,VALID,0.128125,
2011-04-27, 00:40:04,VALID,1007.86,VALID,0,VALID,103.581,VALID,0,VALID,23.7507,VALID,352,VALID,0.204297,
2011-04-27, 00:41:04,VALID,1007.82,VALID,0,VALID,103.542,VALID,0,VALID,23.7914,VALID,352,VALID,0.215234,
2011-04-27, 00:42:04,VALID,1007.84,VALID,0,VALID,103.52,VALID,0,VALID,23.8109,VALID,352,VALID,0.0824219,
2011-04-27, 00:43:04,VALID,1007.83,VALID,0,VALID,103.504,VALID,0.105969,VALID,23.7896,VALID,352,VALID,0,
2011-04-27, 00:44:04,VALID,1007.82,VALID,0,VALID,103.497,VALID,0.105969,VALID,23.7896,VALID,352,VALID,0.0121094,
2011-04-27, 00:45:04,VALID,1007.83,VALID,0,VALID,103.474,VALID,0,VALID,23.8304,VALID,352,VALID,0.309766,
2011-04-27, 00:46:04,VALID,1007.82,VALID,0,VALID,103.489,VALID,0.105969,VALID,23.8304,VALID,352,VALID,0.535937,
2011-04-27, 00:47:04,VALID,1007.78,VALID,0,VALID,103.527,VALID,0,VALID,23.8109,VALID,352,VALID,0.00859375,
2011-04-27, 00:48:04,VALID,1007.74,VALID,0,VALID,103.512,VALID,0.105969,VALID,23.8109,VALID,352,VALID,0.331641,
2011-04-27, 00:49:04,VALID,1007.74,VALID,0,VALID,103.52,VALID,0,VALID,23.7896,VALID,352,VALID,0.273828,
2011-04-27, 00:50:04,VALID,1007.71,VALID,0,VALID,103.527,VALID,0,VALID,23.7896,VALID,352,VALID,0.316406,
2011-04-27, 00:51:04,VALID,1007.69,VALID,0,VALID,103.527,VALID,0,VALID,23.7896,VALID,352,VALID,0,
2011-04-27, 00:52:04,VALID,1007.68,VALID,0,VALID,103.558,VALID,0.105969,VALID,23.7701,VALID,352,VALID,0,
2011-04-27, 00:53:04,VALID,1007.7,VALID,0,VALID,103.527,VALID,0,VALID,23.8109,VALID,352,VALID,0,
2011-04-27, 00:54:04,VALID,1007.69,VALID,0,VALID,103.512,VALID,0.105969,VALID,23.7896,VALID,352,VALID,0,
2011-04-27, 00:55:04,VALID,1007.7,VALID,0,VALID,103.504,VALID,0,VALID,23.7701,VALID,352,VALID,0,
2011-04-27, 00:56:04,VALID,1007.74,VALID,0,VALID,103.535,VALID,0,VALID,23.7914,VALID,352,VALID,0,
2011-04-27, 00:57:04,VALID,1007.73,VALID,0,VALID,103.527,VALID,0,VALID,23.772,VALID,352,VALID,0,
2011-04-27, 00:58:04,VALID,1007.71,VALID,0,VALID,103.565,VALID,0.105969,VALID,23.7312,VALID,352,VALID,0,
2011-04-27, 00:59:04,VALID,1007.7,VALID,0,VALID,103.581,VALID,0,VALID,23.733,VALID,352,VALID,0,
2011-04-27, 01:00:04,VALID,1007.71,VALID,0,VALID,103.565,VALID,0,VALID,23.733,VALID,352,VALID,0,
2011-04-27, 01:01:04,VALID,1007.7,VALID,0,VALID,103.558,VALID,0.105969,VALID,23.7117,VALID,352,VALID,0,
2011-04-27, 01:02:04,VALID,1007.73,VALID,0,VALID,103.558,VALID,0,VALID,23.7135,VALID,352,VALID,0,
2011-04-27, 01:03:04,VALID,1007.72,VALID,0,VALID,103.573,VALID,0,VALID,23.6922,VALID,352,VALID,0,
2011-04-27, 01:04:04,VALID,1007.73,VALID,0,VALID,103.558,VALID,0,VALID,23.7135,VALID,352,VALID,0,
2011-04-27, 01:05:04,VALID,1007.73,VALID,0,VALID,103.474,VALID,0,VALID,23.733,VALID,352,VALID,0,
2011-04-27, 01:06:04,VALID,1007.74,VALID,0,VALID,103.451,VALID,0,VALID,23.7507,VALID,352,VALID,0,
2011-04-27, 01:07:04,VALID,1007.76,VALID,0,VALID,103.436,VALID,0,VALID,23.7701,VALID,352,VALID,0,
2011-04-27, 01:08:04,VALID,1007.74,VALID,0,VALID,103.436,VALID,0.105969,VALID,23.7896,VALID,352,VALID,0,
2011-04-27, 01:09:04,VALID,1007.75,VALID,0,VALID,103.413,VALID,0,VALID,23.7896,VALID,352,VALID,0,
2011-04-27, 01:10:04,VALID,1007.75,VALID,0,VALID,103.398,VALID,0,VALID,23.8304,VALID,352,VALID,0,
2011-04-27, 01:11:04,VALID,1007.76,VALID,0,VALID,103.39,VALID,0,VALID,23.8499,VALID,352,VALID,0,
2011-04-27, 01:12:04,VALID,1007.74,VALID,0,VALID,103.39,VALID,0,VALID,23.8694,VALID,352,VALID,0,
2011-04-27, 01:13:04,VALID,1007.74,VALID,0,VALID,103.352,VALID,0,VALID,23.8481,VALID,352,VALID,0,
2011-04-27, 01:14:04,VALID,1007.71,VALID,0,VALID,103.337,VALID,0,VALID,23.8889,VALID,352,VALID,0,
2011-04-27, 01:15:04,VALID,1007.71,VALID,0,VALID,103.344,VALID,0,VALID,23.9084,VALID,352,VALID,0,
2011-04-27, 01:16:04,VALID,1007.69,VALID,0,VALID,103.344,VALID,0,VALID,23.9084,VALID,352,VALID,0,
2011-04-27, 01:17:04,VALID,1007.68,VALID,0,VALID,103.352,VALID,0,VALID,23.8889,VALID,352,VALID,0,
2011-04-27, 01:18:04,VALID,1007.63,VALID,0,VALID,103.375,VALID,0,VALID,23.8889,VALID,352,VALID,0,
2011-04-27, 01:19:04,VALID,1007.61,VALID,0,VALID,103.359,VALID,0,VALID,23.9084,VALID,352,VALID,0,
2011-04-27, 01:20:04,VALID,1007.59,VALID,0,VALID,103.367,VALID,0,VALID,23.8889,VALID,352,VALID,0,
2011-04-27, 01:21:04,VALID,1007.6,VALID,0,VALID,103.375,VALID,0,VALID,23.8889,VALID,352,VALID,0,
2011-04-27, 01:22:04,VALID,1007.58,VALID,0,VALID,103.39,VALID,0,VALID,23.8889,VALID,352,VALID,0,
2011-04-27, 01:23:04,VALID,1007.57,VALID,0,VALID,103.382,VALID,0,VALID,23.8889,VALID,352,VALID,0,
2011-04-27, 01:24:04,VALID,1007.56,VALID,0,VALID,103.39,VALID,0,VALID,23.8889,VALID,352,VALID,0.188281,
2011-04-27, 01:25:04,VALID,1007.53,VALID,0,VALID,103.413,VALID,0,VALID,23.8694,VALID,352,VALID,0.403906,
2011-04-27, 01:26:04,VALID,1007.52,VALID,0,VALID,103.436,VALID,0,VALID,23.8304,VALID,352,VALID,0.286328,
2011-04-27, 01:27:04,VALID,1007.56,VALID,0,VALID,103.428,VALID,0,VALID,23.8499,VALID,352,VALID,0.142188,
2011-04-27, 01:28:04,VALID,1007.56,VALID,0,VALID,103.451,VALID,0,VALID,23.8304,VALID,352,VALID,0.121484,
2011-04-27, 01:29:04,VALID,1007.51,VALID,0,VALID,103.443,VALID,0,VALID,23.8304,VALID,352,VALID,0.0644531,
2011-04-27, 01:30:04,VALID,1007.49,VALID,0,VALID,103.428,VALID,0,VALID,23.8109,VALID,352,VALID,0.203516,
2011-04-27, 01:31:04,VALID,1007.49,VALID,0,VALID,103.42,VALID,0,VALID,23.8109,VALID,352,VALID,0.28125,
2011-04-27, 01:32:04,VALID,1007.49,VALID,0,VALID,103.405,VALID,0,VALID,23.8304,VALID,352,VALID,0.342969,
2011-04-27, 01:33:04,VALID,1007.45,VALID,0,VALID,103.398,VALID,0,VALID,23.8109,VALID,352,VALID,0.139844,
2011-04-27, 01:34:04,VALID,1007.45,VALID,0,VALID,103.359,VALID,0,VALID,23.8304,VALID,352,VALID,0,
2011-04-27, 01:35:04,VALID,1007.45,VALID,0,VALID,103.367,VALID,0.105969,VALID,23.8109,VALID,352,VALID,0,
2011-04-27, 01:36:04,VALID,1007.44,VALID,0,VALID,103.405,VALID,0,VALID,23.8109,VALID,352,VALID,0,
2011-04-27, 01:37:04,VALID,1007.45,VALID,0,VALID,103.398,VALID,0,VALID,23.7914,VALID,352,VALID,0,
2011-04-27, 01:38:04,VALID,1007.46,VALID,0,VALID,103.398,VALID,0,VALID,23.7914,VALID,352,VALID,0,
2011-04-27, 01:39:04,VALID,1007.44,VALID,0,VALID,103.42,VALID,0,VALID,23.7914,VALID,352,VALID,0,
2011-04-27, 01:40:04,VALID,1007.46,VALID,0,VALID,103.39,VALID,0,VALID,23.7701,VALID,352,VALID,0,
2011-04-27, 01:41:04,VALID,1007.48,VALID,0,VALID,103.375,VALID,0,VALID,23.772,VALID,352,VALID,0,
2011-04-27, 01:42:04,VALID,1007.44,VALID,0,VALID,103.382,VALID,0,VALID,23.7914,VALID,352,VALID,0,
2011-04-27, 01:43:04,VALID,1007.44,VALID,0,VALID,103.382,VALID,0,VALID,23.7914,VALID,352,VALID,0,
2011-04-27, 01:44:04,VALID,1007.46,VALID,0,VALID,103.375,VALID,0,VALID,23.7914,VALID,352,VALID,0,
2011-04-27, 01:45:04,VALID,1007.44,VALID,0,VALID,103.382,VALID,0,VALID,23.7914,VALID,352,VALID,0,
2011-04-27, 01:46:04,VALID,1007.43,VALID,0,VALID,103.314,VALID,0,VALID,23.8109,VALID,352,VALID,0,
2011-04-27, 01:47:04,VALID,1007.41,VALID,0,VALID,103.276,VALID,0,VALID,23.8499,VALID,352,VALID,0.419531,
2011-04-27, 01:48:04,VALID,1007.39,VALID,0,VALID,103.245,VALID,0,VALID,23.8889,VALID,352,VALID,0.562891,
2011-04-27, 01:49:04,VALID,1007.38,VALID,0,VALID,103.237,VALID,0,VALID,23.8889,VALID,352,VALID,0.542969,
2011-04-27, 01:50:04,VALID,1007.4,VALID,0,VALID,103.23,VALID,0,VALID,23.9278,VALID,106,VALID,0.496094,
2011-04-27, 01:51:04,VALID,1007.37,VALID,0,VALID,103.207,VALID,0,VALID,23.9473,VALID,106,VALID,0.534766,
2011-04-27, 01:52:04,VALID,1007.4,VALID,0,VALID,103.192,VALID,0,VALID,23.9686,VALID,106,VALID,0.374609,
2011-04-27, 01:53:04,VALID,1007.4,VALID,0,VALID,103.245,VALID,0,VALID,23.9473,VALID,106,VALID,0.0457031,
2011-04-27, 01:54:04,VALID,1007.42,VALID,0,VALID,103.23,VALID,0,VALID,23.926,VALID,106,VALID,0.260156,
2011-04-27, 01:55:04,VALID,1007.44,VALID,0,VALID,103.23,VALID,0,VALID,23.9473,VALID,106,VALID,0,
2011-04-27, 01:56:04,VALID,1007.44,VALID,0,VALID,103.23,VALID,0,VALID,23.9473,VALID,106,VALID,0,
2011-04-27, 01:57:04,VALID,1007.44,VALID,0,VALID,103.237,VALID,0,VALID,23.9473,VALID,106,VALID,0,
2011-04-27, 01:58:04,VALID,1007.43,VALID,0,VALID,103.222,VALID,0,VALID,23.9863,VALID,106,VALID,0.496484,
2011-04-27, 01:59:04,VALID,1007.4,VALID,0,VALID,103.245,VALID,0,VALID,23.9668,VALID,106,VALID,0,
2011-04-27, 02:00:04,VALID,1007.38,VALID,0,VALID,103.222,VALID,0,VALID,23.9668,VALID,106,VALID,0.301562,
2011-04-27, 02:01:04,VALID,1007.35,VALID,0,VALID,103.222,VALID,0,VALID,23.9668,VALID,106,VALID,0,
2011-04-27, 02:02:04,VALID,1007.35,VALID,0,VALID,103.237,VALID,0,VALID,23.9881,VALID,106,VALID,0,
2011-04-27, 02:03:04,VALID,1007.34,VALID,0,VALID,103.253,VALID,0,VALID,23.9473,VALID,106,VALID,0,
2011-04-27, 02:04:04,VALID,1007.34,VALID,0,VALID,103.237,VALID,0,VALID,23.9455,VALID,106,VALID,0,
2011-04-27, 02:05:04,VALID,1007.35,VALID,0,VALID,103.23,VALID,0,VALID,23.9863,VALID,106,VALID,0,
2011-04-27, 02:06:04,VALID,1007.34,VALID,0,VALID,103.222,VALID,0,VALID,23.9668,VALID,106,VALID,0.157813,
2011-04-27, 02:07:04,VALID,1007.32,VALID,0,VALID,103.207,VALID,0,VALID,23.9863,VALID,106,VALID,0.3125,
2011-04-27, 02:08:04,VALID,1007.29,VALID,0,VALID,103.207,VALID,0,VALID,24.0058,VALID,106,VALID,0.450391,
2011-04-27, 02:09:04,VALID,1007.27,VALID,0,VALID,103.222,VALID,0,VALID,23.9863,VALID,106,VALID,0.408984,
2011-04-27, 02:10:04,VALID,1007.28,VALID,0,VALID,103.199,VALID,0.105969,VALID,23.9455,VALID,106,VALID,0.375391,
2011-04-27, 02:11:04,VALID,1007.3,VALID,0,VALID,103.222,VALID,0.105969,VALID,23.965,VALID,106,VALID,0.344141,
2011-04-27, 02:12:04,VALID,1007.28,VALID,0,VALID,103.245,VALID,0.105969,VALID,23.9455,VALID,106,VALID,0.252344,
2011-04-27, 02:13:04,VALID,1007.27,VALID,0,VALID,103.245,VALID,0.105969,VALID,23.9455,VALID,106,VALID,0,
2011-04-27, 02:14:04,VALID,1007.29,VALID,0,VALID,103.26,VALID,0.105969,VALID,23.926,VALID,106,VALID,0,
2011-04-27, 02:15:04,VALID,1007.28,VALID,0,VALID,103.283,VALID,0.105969,VALID,23.9065,VALID,106,VALID,0,
2011-04-27, 02:16:04,VALID,1007.29,VALID,0,VALID,103.268,VALID,0.105969,VALID,23.9065,VALID,106,VALID,0,
2011-04-27, 02:17:04,VALID,1007.27,VALID,0,VALID,103.23,VALID,0.105969,VALID,23.926,VALID,106,VALID,0,
2011-04-27, 02:18:04,VALID,1007.27,VALID,0,VALID,103.23,VALID,0.105969,VALID,23.926,VALID,106,VALID,0,
2011-04-27, 02:19:04,VALID,1007.29,VALID,0,VALID,103.222,VALID,0.105969,VALID,23.926,VALID,106,VALID,0,
2011-04-27, 02:20:04,VALID,1007.27,VALID,0,VALID,103.207,VALID,0.105969,VALID,23.926,VALID,106,VALID,0,
2011-04-27, 02:21:04,VALID,1007.3,VALID,0,VALID,103.199,VALID,0,VALID,23.926,VALID,106,VALID,0,
2011-04-27, 02:22:04,VALID,1007.29,VALID,0,VALID,103.23,VALID,0,VALID,23.9473,VALID,106,VALID,0,
2011-04-27, 02:23:04,VALID,1007.26,VALID,0,VALID,103.23,VALID,0.105969,VALID,23.9278,VALID,106,VALID,0,
2011-04-27, 02:24:04,VALID,1007.27,VALID,0,VALID,103.253,VALID,0.105969,VALID,23.9065,VALID,106,VALID,0,
2011-04-27, 02:25:04,VALID,1007.25,VALID,0,VALID,103.26,VALID,0.105969,VALID,23.8871,VALID,106,VALID,0,
2011-04-27, 02:26:04,VALID,1007.24,VALID,0,VALID,103.283,VALID,0.105969,VALID,23.8889,VALID,106,VALID,0,
2011-04-27, 02:27:04,VALID,1007.24,VALID,0,VALID,103.298,VALID,0,VALID,23.8481,VALID,106,VALID,0,
2011-04-27, 02:28:04,VALID,1007.24,VALID,0,VALID,103.298,VALID,0.105969,VALID,23.8286,VALID,106,VALID,0,
2011-04-27, 02:29:04,VALID,1007.21,VALID,0,VALID,103.298,VALID,0,VALID,23.8499,VALID,106,VALID,0,
2011-04-27, 02:30:04,VALID,1007.17,VALID,0,VALID,103.276,VALID,0.105969,VALID,23.8286,VALID,106,VALID,0,
2011-04-27, 02:31:04,VALID,1007.15,VALID,0,VALID,103.26,VALID,0.105969,VALID,23.8286,VALID,106,VALID,0,
2011-04-27, 02:32:04,VALID,1007.14,VALID,0,VALID,103.245,VALID,0.105969,VALID,23.8499,VALID,106,VALID,0,
2011-04-27, 02:33:04,VALID,1007.13,VALID,0,VALID,103.26,VALID,0.105969,VALID,23.8286,VALID,106,VALID,0.0714844,
2011-04-27, 02:34:04,VALID,1007.09,VALID,0,VALID,103.276,VALID,0.105969,VALID,23.8304,VALID,106,VALID,0.305078,
2011-04-27, 02:35:04,VALID,1007.1,VALID,0,VALID,103.306,VALID,0.105969,VALID,23.8109,VALID,106,VALID,0.38125,
2011-04-27, 02:36:04,VALID,1007.07,VALID,0,VALID,103.344,VALID,0,VALID,23.7507,VALID,106,VALID,0.348047,
2011-04-27, 02:37:04,VALID,1007.07,VALID,0,VALID,103.321,VALID,0,VALID,23.772,VALID,106,VALID,0.374219,
2011-04-27, 02:38:04,VALID,1007.07,VALID,0,VALID,103.306,VALID,0.105969,VALID,23.7507,VALID,106,VALID,0.301953,
2011-04-27, 02:39:04,VALID,1007.07,VALID,0,VALID,103.306,VALID,0.105969,VALID,23.7525,VALID,106,VALID,0.303516,
2011-04-27, 02:40:04,VALID,1007.07,VALID,0,VALID,103.291,VALID,0.105969,VALID,23.7117,VALID,106,VALID,0.405469,
2011-04-27, 02:41:04,VALID,1007.06,VALID,0,VALID,103.276,VALID,0.105969,VALID,23.7117,VALID,63,VALID,0.532422,
2011-04-27, 02:42:04,VALID,1007.07,VALID,0,VALID,103.298,VALID,0.105969,VALID,23.6922,VALID,62,VALID,0.748438,
2011-04-27, 02:43:04,VALID,1007.07,VALID,0,VALID,103.253,VALID,0.105969,VALID,23.733,VALID,62,VALID,0.729688,
2011-04-27, 02:44:04,VALID,1007.09,VALID,0,VALID,103.253,VALID,0.105969,VALID,23.6922,VALID,62,VALID,0.535547,
2011-04-27, 02:45:04,VALID,1007.09,VALID,0,VALID,103.283,VALID,0.105969,VALID,23.694,VALID,62,VALID,0.64375,
2011-04-27, 02:46:04,VALID,1007.09,VALID,0,VALID,103.276,VALID,0.105969,VALID,23.6922,VALID,48,VALID,0.617578,
2011-04-27, 02:47:04,VALID,1007.12,VALID,0,VALID,103.276,VALID,0.105969,VALID,23.6727,VALID,21,VALID,0.473047,
2011-04-27, 02:48:04,VALID,1007.09,VALID,0,VALID,103.298,VALID,0.105969,VALID,23.6532,VALID,20,VALID,0.138672,
2011-04-27, 02:49:04,VALID,1007.12,VALID,0,VALID,103.26,VALID,0.105969,VALID,23.6532,VALID,14,VALID,0,
2011-04-27, 02:50:04,VALID,1007.1,VALID,0,VALID,103.268,VALID,0.105969,VALID,23.6532,VALID,15,VALID,0,
2011-04-27, 02:51:04,VALID,1007.12,VALID,0,VALID,103.291,VALID,0.105969,VALID,23.6532,VALID,14,VALID,0,
2011-04-27, 02:52:04,VALID,1007.11,VALID,0,VALID,103.298,VALID,0.105969,VALID,23.6338,VALID,14,VALID,0.158594,
2011-04-27, 02:53:04,VALID,1007.09,VALID,0,VALID,103.26,VALID,0.105969,VALID,23.6338,VALID,354,VALID,0.798437,
2011-04-27, 02:54:04,VALID,1007.1,VALID,0,VALID,103.192,VALID,0,VALID,23.6727,VALID,351,VALID,0.222266,
2011-04-27, 02:55:04,VALID,1007.1,VALID,0,VALID,103.207,VALID,0,VALID,23.6745,VALID,351,VALID,0,
2011-04-27, 02:56:04,VALID,1007.1,VALID,0,VALID,103.245,VALID,0.105969,VALID,23.6745,VALID,13,VALID,0.418359,
2011-04-27, 02:57:04,VALID,1007.1,VALID,0,VALID,103.26,VALID,0.105969,VALID,23.6338,VALID,13,VALID,0.0328125,
2011-04-27, 02:58:04,VALID,1007.13,VALID,0,VALID,103.283,VALID,0.105969,VALID,23.6143,VALID,13,VALID,0,
2011-04-27, 02:59:04,VALID,1007.14,VALID,0,VALID,103.253,VALID,0.105969,VALID,23.6356,VALID,13,VALID,0,
2011-04-27, 03:00:04,VALID,1007.13,VALID,0,VALID,103.245,VALID,0,VALID,23.655,VALID,13,VALID,0,
2011-04-27, 03:01:04,VALID,1007.15,VALID,0,VALID,103.207,VALID,0.105969,VALID,23.6532,VALID,321,VALID,0.393359,
2011-04-27, 03:02:04,VALID,1007.15,VALID,0,VALID,103.169,VALID,0.105969,VALID,23.6922,VALID,321,VALID,0.132813,
2011-04-27, 03:03:04,VALID,1007.14,VALID,0,VALID,103.169,VALID,0,VALID,23.7117,VALID,318,VALID,0.426172,
2011-04-27, 03:04:04,VALID,1007.16,VALID,0,VALID,103.146,VALID,0.105969,VALID,23.7117,VALID,318,VALID,0.196094,
2011-04-27, 03:05:04,VALID,1007.18,VALID,0,VALID,103.123,VALID,0.105969,VALID,23.7525,VALID,318,VALID,0.173828,
2011-04-27, 03:06:04,VALID,1007.19,VALID,0,VALID,103.123,VALID,0.105969,VALID,23.7701,VALID,318,VALID,0.667969,
2011-04-27, 03:07:04,VALID,1007.21,VALID,0,VALID,103.123,VALID,0,VALID,23.7701,VALID,317,VALID,0.637891,
2011-04-27, 03:08:04,VALID,1007.15,VALID,0,VALID,103.115,VALID,0.105969,VALID,23.7896,VALID,316,VALID,0.326172,
2011-04-27, 03:09:04,VALID,1007.17,VALID,0,VALID,103.093,VALID,0.105969,VALID,23.8109,VALID,287,VALID,0.342187,
2011-04-27, 03:10:04,VALID,1007.17,VALID,0,VALID,103.1,VALID,0.105969,VALID,23.8109,VALID,287,VALID,0.325,
2011-04-27, 03:11:04,VALID,1007.19,VALID,0,VALID,103.093,VALID,0,VALID,23.8109,VALID,287,VALID,0.188281,
2011-04-27, 03:12:04,VALID,1007.19,VALID,0,VALID,103.115,VALID,0,VALID,23.8304,VALID,287,VALID,0,
2011-04-27, 03:13:04,VALID,1007.21,VALID,0,VALID,103.108,VALID,0,VALID,23.8499,VALID,287,VALID,0.272656,
2011-04-27, 03:14:04,VALID,1007.23,VALID,0,VALID,103.123,VALID,0,VALID,23.8304,VALID,271,VALID,0.584375,
2011-04-27, 03:15:04,VALID,1007.18,VALID,0,VALID,103.1,VALID,0,VALID,23.8304,VALID,266,VALID,0.0566406,
2011-04-27, 03:16:04,VALID,1007.17,VALID,0,VALID,103.1,VALID,0,VALID,23.8304,VALID,266,VALID,0,
2011-04-27, 03:17:04,VALID,1007.16,VALID,0,VALID,103.108,VALID,0,VALID,23.8304,VALID,266,VALID,0.486719,
2011-04-27, 03:18:04,VALID,1007.15,VALID,0,VALID,103.115,VALID,0,VALID,23.8109,VALID,266,VALID,0.276953,
2011-04-27, 03:19:04,VALID,1007.17,VALID,0,VALID,103.131,VALID,0,VALID,23.8109,VALID,266,VALID,0.221484,
2011-04-27, 03:20:04,VALID,1007.18,VALID,0,VALID,103.138,VALID,0,VALID,23.7914,VALID,266,VALID,0,
2011-04-27, 03:21:04,VALID,1007.18,VALID,0,VALID,103.161,VALID,0.105969,VALID,23.772,VALID,266,VALID,0,
2011-04-27, 03:22:04,VALID,1007.19,VALID,0,VALID,103.146,VALID,0,VALID,23.7701,VALID,266,VALID,0,
2011-04-27, 03:23:04,VALID,1007.18,VALID,0,VALID,103.123,VALID,0.105969,VALID,23.7701,VALID,266,VALID,0,
2011-04-27, 03:24:04,VALID,1007.15,VALID,0,VALID,103.123,VALID,0,VALID,23.772,VALID,266,VALID,0,
2011-04-27, 03:25:04,VALID,1007.17,VALID,0,VALID,103.123,VALID,0.105969,VALID,23.7701,VALID,266,VALID,0,
2011-04-27, 03:26:04,VALID,1007.12,VALID,0,VALID,103.093,VALID,0,VALID,23.8109,VALID,266,VALID,0,
2011-04-27, 03:27:04,VALID,1007.11,VALID,0,VALID,103.093,VALID,0.105969,VALID,23.8091,VALID,266,VALID,0.182812,
2011-04-27, 03:28:04,VALID,1007.1,VALID,0,VALID,103.093,VALID,0,VALID,23.8109,VALID,266,VALID,0.328906,
2011-04-27, 03:29:04,VALID,1007.05,VALID,0,VALID,103.108,VALID,0,VALID,23.7701,VALID,266,VALID,0.308594,
2011-04-27, 03:30:04,VALID,1007.03,VALID,0,VALID,103.123,VALID,0.105969,VALID,23.7701,VALID,266,VALID,0.376563,
2011-04-27, 03:31:04,VALID,1007.04,VALID,0,VALID,103.108,VALID,0.105969,VALID,23.8127,VALID,266,VALID,0.467187,
2011-04-27, 03:32:04,VALID,1007.02,VALID,0,VALID,103.115,VALID,0,VALID,23.772,VALID,266,VALID,0.573047,
2011-04-27, 03:33:04,VALID,1007.04,VALID,0,VALID,103.1,VALID,0,VALID,23.7914,VALID,266,VALID,0.626172,
2011-04-27, 03:34:04,VALID,1007.07,VALID,0,VALID,103.054,VALID,0,VALID,23.8109,VALID,266,VALID,0.312109,
2011-04-27, 03:35:04,VALID,1007.08,VALID,0,VALID,103.054,VALID,0.105969,VALID,23.8109,VALID,266,VALID,0.453906,
2011-04-27, 03:36:04,VALID,1007.09,VALID,0,VALID,103.085,VALID,0,VALID,23.8109,VALID,266,VALID,0.389844,
2011-04-27, 03:37:04,VALID,1007.12,VALID,0,VALID,103.062,VALID,0.105969,VALID,23.8109,VALID,266,VALID,0.193359,
2011-04-27, 03:38:04,VALID,1007.15,VALID,0,VALID,103.07,VALID,0,VALID,23.7914,VALID,266,VALID,0.320313,
2011-04-27, 03:39:04,VALID,1007.16,VALID,0,VALID,103.07,VALID,0,VALID,23.7914,VALID,266,VALID,0.330859,
2011-04-27, 03:40:04,VALID,1007.17,VALID,0,VALID,103.077,VALID,0.105969,VALID,23.7914,VALID,266,VALID,0.308984,
2011-04-27, 03:41:04,VALID,1007.2,VALID,0,VALID,103.108,VALID,0.105969,VALID,23.772,VALID,266,VALID,0.337109,
2011-04-27, 03:42:04,VALID,1007.2,VALID,0,VALID,103.085,VALID,0,VALID,23.7932,VALID,266,VALID,0.116016,
2011-04-27, 03:43:04,VALID,1007.19,VALID,0,VALID,103.093,VALID,0.105969,VALID,23.772,VALID,266,VALID,0.338672,
2011-04-27, 03:44:04,VALID,1007.21,VALID,0,VALID,103.1,VALID,0,VALID,23.7525,VALID,266,VALID,0.221484,
2011-04-27, 03:45:04,VALID,1007.21,VALID,0,VALID,103.093,VALID,0,VALID,23.733,VALID,266,VALID,0,
2011-04-27, 03:46:04,VALID,1007.19,VALID,0,VALID,103.093,VALID,0,VALID,23.733,VALID,266,VALID,0,
2011-04-27, 03:47:04,VALID,1007.17,VALID,0,VALID,103.077,VALID,0,VALID,23.733,VALID,266,VALID,0,